Location: Elstree
(51.6403°N, 0.2969°W)
Time: 14:57:42
(UTC+00:00)

SJ 16-02 - Pass Details

Date: 18 June 2021
Orbit: 606 x 616 km, 75.0° (Epoch: 29 July)

Event Time Altitude Azimuth Distance (km) Brightness Sun altitude
Rises 01:41:05 0° 321° (NW) 2,876 5.2 -11.9°
Reaches altitude 10° 01:44:21 10° 295° (WNW) 1,965 4.0 -11.7°
Maximum altitude 01:46:28 13° 266° (W) 1,745 3.4 -11.6°
Enters shadow 01:48:17 11° 241° (WSW) 1,905 3.4 -11.4°
